Location: *
(13.0000°N, 151.6000°E)
Time: 03:57:07
(UTC+00:00)

CENTAUR R/B - Pass Details

Date: 01 April 2020
Orbit: 761 x 1427 km, 63.5° (Epoch: 24 May)

Event Time Altitude Azimuth Distance (km) Brightness Sun altitude
Exits shadow 18:54:41 12° 300° (WNW) 2,334 4.0 -14.0°
Maximum altitude 18:55:01 12° 304° (NW) 2,339 4.1 -13.9°
Drops below altitude 10° 18:57:06 10° 325° (NW) 2,534 4.4 -13.4°
Sets 19:01:42 0° 356° (N) 3,634 5.5 -12.3°
